Regional Weather Roundup
Issued by NWS Midland/Odessa, TX

Skip options and go directly to product.
Home | Oldest Version | Next Version | Current Version | All | Text Only | Save Text | Print | Product List | Glossary On

Skip product version selection by date and time.   
549
ASUS44 KMAF 292001
RWRMAF
MIDLAND AREA WEATHER ROUNDUP
NATIONAL WEATHER SERVICE MIDLAND TX
300 PM CDT SUN MAR 29 2015

...IN SOUTHWEST TEXAS AND SOUTHEAST NEW MEXICO...

CITY           SKY/WX    TMP DP  RH WIND       PRES   REMARKS
ALPINE         SUNNY     83  18   9 E10       30.24F
ANDREWS        FAIR      87  31  13 N13G24    30.08S
ARTESIA        SUNNY     86  27  11 NE13G20   30.12F
BIG SPRING     SUNNY     94  30  10 NW14      30.03F
CARLSBAD       SUNNY     89  21   8 NE6G16    30.09F
DRYDEN           N/A     89  42  19 S13       30.01F
FORT STOCKTON  SUNNY     88  27  11 NW9       30.08F
GUAD PASS      SUNNY     81  14   8 W16G25    30.24F
HOBBS          SUNNY     84  28  13 N17G25    30.12F
MARFA          SUNNY     84  23  10 NW10      30.21F
MIDLAND AIRPK  SUNNY     89  32  13 NW13      30.05F
MIDLAND INTL   SUNNY     89  32  13 NW8       30.04F
ODESSA         SUNNY     90  27  10 N16G23    30.06S
PECOS          SUNNY     89  34  14 NW8       30.06F
PRESIDIO       FAIR      87  32  13 MISG      30.11F
SEMINOLE       SUNNY     85  32  14 NE16G24   30.10S
SNYDER         SUNNY     87  36  16 N13G23    30.02S
WINK           SUNNY     92  19   7 NW8       30.03F
$$
...OTHER STATIONS IN TEXAS...

CITY           SKY/WX    TMP DP  RH WIND       PRES   REMARKS
ABILENE        SUNNY     87  50  27 SW12      29.97F
AMARILLO       SUNNY     73  23  15 N26G38    30.18F
AUSTIN         SUNNY     81  58  45 S22G31    30.06F
BROWNSVILLE    PTSUNNY   78  65  63 S21G30    30.12F
CORPUS CHRISTI MOSUNNY   79  66  64 SE30G36   30.10F
DALLAS FTW     MOSUNNY   80  58  46 S24G31    29.95F
DEL RIO        SUNNY     83  56  39 SE13G18   30.00F
EL PASO        PTSUNNY   85   7   5 CALM      30.15F
HOUSTON INT    MOSUNNY   80  60  50 S14G24    30.11F
LUBBOCK        PTSUNNY   82  28  14 NE28G36   30.09R
SAN ANGELO     SUNNY     90  45  21 SW9G21    29.98F
SAN ANTONIO    SUNNY     81  58  45 S15G23    30.07F
WACO           SUNNY     80  58  46 S22G28    30.01F
WICHITA FALLS  NOT AVBL
$$
...OTHER LOCATIONS IN NEW MEXICO...

CITY           SKY/WX    TMP DP  RH WIND       PRES   REMARKS
ALAMAGORDO     PTSUNNY   82   9   6 W10       30.16F
ALBUQUERQUE    PTSUNNY   75  20  12 NW5       30.21F
CANNON AFB     NOT AVBL
CLOVIS         SUNNY     75  34  22 NE26      30.19F
HOLLOMAN AFB   NOT AVBL
ROSWELL        SUNNY     86  20   9 NE9       30.12F
RUIDOSO        MOSUNNY   72  10   9 NW9G16    30.32F
SANTA FE       MOSUNNY   70  14  11 S5        30.24F
TRUTH OR CONSE PTSUNNY   81  10   7 SW8       30.16F
TUCUMCARI      SUNNY     74  32  21 E20G31    30.20F
$$

USA.gov is the U.S. government's official web portal to all federal, state and local government web resources and services.